NOAA 16 DEB, 41359

Orbit data source: Space-Track

NOAA 16 DEB, 41359 is space debris in SSO originally from a launch on Thu, 21 Sep 2000 UTC launched from the Air Force Western Test Range (AFWTR). Debris objects in space refer to the collection of defunct objects orbiting the Earth. Examples of debris include non-operational satellites, rocket bodies, and fragments generated from explosions, collisions, or faulty payload assembly.

Loading next visibility...
Identifier
41359, 2000-055JC
Orbit
SSO
Country
Flag of USUS
Related business
Manufacturer
Unknown
Mission
Spacecraft
Bus & Motor
Unknown
Mass
Unknown
Launch date (UTC)
2000-09-21 (25 years ago)
Launch vehicle
Unknown
Launch site
Air Force Western Test Range (AFWTR)
Object type
Payload
Rocket body
Debris
Shape & HBR
Unknown shape, 0.1 m
Radar Cross Section
Small (<0.1 m²)

Expand to show TLE details & history
Last TLE update: 11 hours ago

TLE from 11 hours ago
0 NOAA 16 DEB
1 41359U 00055JC  25353.99782740  .00006785  00000-0  16084-2 0  9993
2 41359  98.9457 172.3662 0024607 257.8503 101.9934 14.54170455513970
Epoch: 2025-12-19T23:56Z
TLE epoch observation values (Epoch: 2025-12-19T23:56:52.287Z)
Latitude
-0.00009°
Longitude
84.3174°
Altitude
718.68 km
Speed
7.494 km/s
True Right ascension
11h 29m 27s
True Declination
0° 00' 00"
Sunlit
Object was in daylight at epoch
Visualization orbit readout
Latitude
Unknown
Longitude
Unknown
Altitude
Unknown
Speed
Unknown
Apparent Right ascension
Unknown
Apparent Declination
Unknown
Sunlit
N/A
Visualization observer readout
Local Sidereal Time
09:30:19
Azimuth
Unknown
Elevation
Unknown
Doppler factor
Unknown
Orbital elements
Apogee altitude
726.624 km
Perigee altitude
691.745 km
Semi-major axis
7,087.322 km
Eccentricity
0.00246
Inclination
98.9457°
RAAN
172.3662°
Arg. of periapsis
257.8503°
True anomaly
102.26904°
Mean anomaly
101.9934°
Eccentric anomaly
102.13124°
Mean motion
3.63764 °/min
Orbital period
98.97 mins
BSTAR
0.0016084
Loading maneuver chart data...
Computing Atmospheric mass density...
Loading historical data...
Loading historical data...
Loading historical data...
Loading historical data...
Loading historical data...
Loading historical data...
Loading historical data...

Documentation

Showing up to 5 results
|